Regional Weather Roundup
Issued by NWS

Home | Current Version | Previous Version | Graphics & Text | Print | Product List | Glossary On
Versions: 1 2 3 4 5 6 7 8 9 10 11 12 13 14 15 16 17 18 19 20 21 22 23 24 25 26 27 28 29 30 31 32 33 34 35 36 37 38 39 40 41 42 43 44 45 46 47 48 49 50
000
ASUS43 KFSD 260202
RWRSD

WEATHER ROUNDUP FOR SOUTH DAKOTA
NATIONAL WEATHER SERVICE SIOUX FALLS SD
900 PM CDT WED MAY 25 2016

NOTE: "FAIR" INDICATES FEW OR NO CLOUDS BELOW 12,000 FEET WITH NO
SIGNIFICANT WEATHER AND/OR OBSTRUCTIONS TO VISIBILITY.


SDZ001>005-009-010-012>017-260300-
NORTHWEST AND NORTH CENTRAL SOUTH DAKOTA

CITY           SKY/WX    TMP DP  RH WIND       PRES   REMARKS
BUFFALO          N/A     62  45  53 NW7       29.80S
FAITH            N/A     60  43  53 NW7       29.84R
MOBRIDGE       CLEAR     63  50  62 W12       29.76R
$$

SDZ012>016-024>037-041>051-057-063-072>074-260300-
SOUTHWEST AND SOUTH CENTRAL SOUTH DAKOTA

CITY           SKY/WX    TMP DP  RH WIND       PRES   REMARKS
RAPID CTY ARPT PTCLDY    57  50  77 CALM      29.89R
PIERRE         CLEAR     64  51  62 NW12      29.79S
CUSTER         CLOUDY    55  38  52 CALM      29.96S
ELLSWORTH AFB  PTCLDY    56  49  77 NW5       29.88
PHILIP         CLEAR     60  52  74 NW6       29.84S
PINE RIDGE     CLEAR     63  43  48 W6        29.89R
WINNER         FAIR      64  56  75 W5        29.82R
$$

SDZ004>011-016>023-039-040-260300-
NORTHEAST SOUTH DAKOTA

CITY           SKY/WX    TMP DP  RH WIND       PRES   REMARKS
ABERDEEN       CLOUDY    64  51  62 SW6       29.73R
WATERTOWN      CLOUDY    68  57  68 W7        29.80R
BROOKINGS      CLOUDY    70  60  70 W5        29.82R
SISSETON         N/A     71  58  63 SW10      29.74R
$$

SDZ017-020-022-023-036>040-048>070-260300-
SOUTHEAST SOUTH DAKOTA

CITY           SKY/WX    TMP DP  RH WIND       PRES   REMARKS
SIOUX FALLS    CLOUDY    68  60  75 NW6       29.80R
HURON          CLOUDY    60  57  89 S13       29.78F
MITCHELL       CLOUDY    73  63  70 VRB3      29.79S
YANKTON        CLOUDY    73  61  64 N8        29.75F
$$

ABBREVIATIONS USED IN REMARKS
   TC - TEMPERATURE IN CELSIUS
  WCI - WIND CHILL INDEX
   HX - HEAT INDEX
  VSB - VISIBILITY




USA.gov is the U.S. government's official web portal to all federal, state and local government web resources and services.